Time,TemperatureF,DewpointF,PressureIn,WindDirection,WindDirectionDegrees,WindSpeedMPH,WindSpeedGustMPH,Humidity,HourlyPrecipIn,Conditions,Clouds,dailyrainin,SoftwareType,DateUTC
2013-01-12 00:04:00,64.2,62.4,29.84,SW,214,3.0,10.0,94,0.00,,,0.00,Wunderground v.1.15,2013-01-12 06:04:00,
2013-01-12 00:09:00,64.2,62.4,29.84,South,172,3.0,10.0,94,0.00,,,0.00,Wunderground v.1.15,2013-01-12 06:09:00,
2013-01-12 00:15:00,64.3,62.5,29.83,SSE,167,3.0,10.0,94,0.00,,,0.00,Wunderground v.1.15,2013-01-12 06:15:00,
2013-01-12 00:20:00,64.3,62.5,29.83,SSE,157,3.0,10.0,94,0.00,,,0.00,Wunderground v.1.15,2013-01-12 06:20:00,
2013-01-12 00:25:00,64.3,62.5,29.83,SSE,160,3.0,10.0,94,0.00,,,0.00,Wunderground v.1.15,2013-01-12 06:25:00,
2013-01-12 00:31:00,64.3,62.8,29.82,SSE,152,4.0,10.0,95,0.00,,,0.00,Wunderground v.1.15,2013-01-12 06:31:00,
2013-01-12 00:36:00,64.4,62.6,29.82,South,177,4.0,10.0,94,0.00,,,0.00,Wunderground v.1.15,2013-01-12 06:36:00,
2013-01-12 00:41:00,64.3,62.5,29.82,SSE,153,3.0,10.0,94,0.00,,,0.00,Wunderground v.1.15,2013-01-12 06:41:00,
2013-01-12 00:47:00,64.2,62.7,29.82,South,169,3.0,10.0,95,0.00,,,0.00,Wunderground v.1.15,2013-01-12 06:47:00,
2013-01-12 00:53:00,64.1,62.6,29.83,SSE,162,3.0,10.0,95,0.00,,,0.00,Wunderground v.1.15,2013-01-12 06:53:00,
2013-01-12 00:58:00,64.0,62.5,29.83,SSE,159,2.0,10.0,95,0.00,,,0.00,Wunderground v.1.15,2013-01-12 06:58:00,
2013-01-12 01:04:00,63.9,62.4,29.83,SSE,160,1.0,10.0,95,0.00,,,0.00,Wunderground v.1.15,2013-01-12 07:04:00,
2013-01-12 01:10:00,63.9,62.4,29.82,South,169,1.0,10.0,95,0.00,,,0.00,Wunderground v.1.15,2013-01-12 07:10:00,
2013-01-12 01:16:00,63.9,62.4,29.82,SSE,159,3.0,10.0,95,0.00,,,0.00,Wunderground v.1.15,2013-01-12 07:16:00,
2013-01-12 01:22:00,64.0,62.5,29.82,SSE,152,4.0,10.0,95,0.00,,,0.00,Wunderground v.1.15,2013-01-12 07:22:00,
2013-01-12 01:28:00,64.0,62.8,29.82,SE,143,4.0,10.0,96,0.00,,,0.00,Wunderground v.1.15,2013-01-12 07:28:00,
2013-01-12 01:33:00,64.1,62.9,29.82,SSE,163,4.0,10.0,96,0.00,,,0.00,Wunderground v.1.15,2013-01-12 07:33:00,
2013-01-12 01:39:00,64.1,62.9,29.82,SSE,153,4.0,10.0,96,0.00,,,0.00,Wunderground v.1.15,2013-01-12 07:39:00,
2013-01-12 01:44:00,64.1,62.9,29.82,South,176,4.0,10.0,96,0.00,,,0.00,Wunderground v.1.15,2013-01-12 07:44:00,
2013-01-12 01:49:00,64.0,62.8,29.82,SSE,160,4.0,10.0,96,0.00,,,0.00,Wunderground v.1.15,2013-01-12 07:49:00,
2013-01-12 01:55:00,64.1,62.9,29.81,SSE,157,5.0,10.0,96,0.00,,,0.00,Wunderground v.1.15,2013-01-12 07:55:00,
2013-01-12 02:00:00,64.1,62.9,29.81,South,172,6.0,6.0,96,0.00,,,0.00,Wunderground v.1.15,2013-01-12 08:00:00,
2013-01-12 02:05:00,64.3,63.1,29.81,South,174,6.0,10.0,96,0.00,,,0.00,Wunderground v.1.15,2013-01-12 08:05:00,
2013-01-12 02:11:00,64.4,63.2,29.80,SSE,165,7.0,10.0,96,0.00,,,0.00,Wunderground v.1.15,2013-01-12 08:11:00,
2013-01-12 02:17:00,64.5,63.3,29.80,South,169,6.0,10.0,96,0.00,,,0.00,Wunderground v.1.15,2013-01-12 08:17:00,
2013-01-12 02:23:00,64.7,63.5,29.80,SSE,162,6.0,10.0,96,0.00,,,0.00,Wunderground v.1.15,2013-01-12 08:23:00,
2013-01-12 02:29:00,64.8,63.6,29.80,SSE,149,6.0,10.0,96,0.00,,,0.00,Wunderground v.1.15,2013-01-12 08:29:00,
2013-01-12 02:35:00,64.8,63.6,29.80,South,170,6.0,10.0,96,0.00,,,0.00,Wunderground v.1.15,2013-01-12 08:35:00,
2013-01-12 02:40:00,64.9,63.4,29.80,SSE,152,6.0,6.0,95,0.00,,,0.00,Wunderground v.1.15,2013-01-12 08:40:00,
2013-01-12 02:46:00,64.9,63.4,29.80,SSE,163,5.0,10.0,95,0.00,,,0.00,Wunderground v.1.15,2013-01-12 08:46:00,
2013-01-12 02:52:00,65.0,63.5,29.80,SSE,149,5.0,10.0,95,0.00,,,0.00,Wunderground v.1.15,2013-01-12 08:52:00,
2013-01-12 02:58:00,65.0,63.5,29.79,SSE,158,6.0,10.0,95,0.00,,,0.00,Wunderground v.1.15,2013-01-12 08:58:00,
2013-01-12 03:04:00,65.0,63.5,29.79,South,180,6.0,10.0,95,0.00,,,0.00,Wunderground v.1.15,2013-01-12 09:04:00,
2013-01-12 03:10:00,65.0,63.5,29.77,South,184,7.0,10.0,95,0.00,,,0.00,Wunderground v.1.15,2013-01-12 09:10:00,
2013-01-12 03:16:00,64.9,63.4,29.77,South,172,7.0,10.0,95,0.00,,,0.00,Wunderground v.1.15,2013-01-12 09:16:00,
2013-01-12 03:22:00,64.8,63.3,29.78,South,170,6.0,10.0,95,0.00,,,0.00,Wunderground v.1.15,2013-01-12 09:22:00,
2013-01-12 03:28:00,64.6,63.4,29.77,South,183,6.0,10.0,96,0.00,,,0.00,Wunderground v.1.15,2013-01-12 09:28:00,
2013-01-12 03:34:00,64.6,63.4,29.76,SSW,208,6.0,10.0,96,0.00,,,0.00,Wunderground v.1.15,2013-01-12 09:34:00,
2013-01-12 03:40:00,64.6,63.4,29.76,South,169,7.0,10.0,96,0.00,,,0.00,Wunderground v.1.15,2013-01-12 09:40:00,
2013-01-12 03:45:00,64.7,63.5,29.76,SSE,163,7.0,11.0,96,0.00,,,0.00,Wunderground v.1.15,2013-01-12 09:45:00,
2013-01-12 03:51:00,64.8,63.6,29.75,South,175,7.0,10.0,96,0.00,,,0.00,Wunderground v.1.15,2013-01-12 09:51:00,
2013-01-12 03:57:00,64.9,63.7,29.75,SSW,195,7.0,10.0,96,0.00,,,0.00,Wunderground v.1.15,2013-01-12 09:57:00,
2013-01-12 04:02:00,64.9,63.7,29.75,SSE,156,7.0,10.0,96,0.00,,,0.00,Wunderground v.1.15,2013-01-12 10:02:00,
2013-01-12 04:08:00,64.9,63.7,29.75,SSE,162,6.0,10.0,96,0.00,,,0.00,Wunderground v.1.15,2013-01-12 10:08:00,
2013-01-12 04:14:00,65.0,63.8,29.75,SSW,208,6.0,10.0,96,0.00,,,0.00,Wunderground v.1.15,2013-01-12 10:14:00,
2013-01-12 04:19:00,65.0,63.8,29.75,SSW,205,6.0,10.0,96,0.00,,,0.00,Wunderground v.1.15,2013-01-12 10:19:00,
2013-01-12 04:25:00,65.1,63.9,29.75,SW,217,7.0,10.0,96,0.00,,,0.00,Wunderground v.1.15,2013-01-12 10:25:00,
2013-01-12 04:31:00,65.0,63.8,29.75,SW,214,7.0,10.0,96,0.00,,,0.00,Wunderground v.1.15,2013-01-12 10:31:00,
2013-01-12 04:36:00,65.0,63.8,29.74,SW,219,6.0,10.0,96,0.00,,,0.00,Wunderground v.1.15,2013-01-12 10:36:00,
2013-01-12 04:42:00,65.0,64.1,29.74,SSE,158,7.0,16.0,97,0.00,,,0.00,Wunderground v.1.15,2013-01-12 10:42:00,
2013-01-12 04:48:00,65.0,64.1,29.73,SSW,208,8.0,16.0,97,0.00,,,0.00,Wunderground v.1.15,2013-01-12 10:48:00,
2013-01-12 04:54:00,65.1,64.2,29.73,South,186,9.0,16.0,97,0.00,,,0.00,Wunderground v.1.15,2013-01-12 10:54:00,
2013-01-12 04:59:00,65.2,64.3,29.73,SW,219,11.0,16.0,97,0.00,,,0.00,Wunderground v.1.15,2013-01-12 10:59:00,
2013-01-12 05:05:00,65.2,64.3,29.73,SW,217,11.0,15.0,97,0.00,,,0.00,Wunderground v.1.15,2013-01-12 11:05:00,
2013-01-12 05:11:00,65.2,64.3,29.73,South,169,10.0,12.0,97,0.00,,,0.00,Wunderground v.1.15,2013-01-12 11:11:00,
2013-01-12 05:16:00,65.1,64.2,29.73,SW,219,9.0,12.0,97,0.00,,,0.00,Wunderground v.1.15,2013-01-12 11:16:00,
2013-01-12 05:22:00,65.2,64.3,29.73,SSW,200,9.0,11.0,97,0.00,,,0.00,Wunderground v.1.15,2013-01-12 11:22:00,
2013-01-12 05:28:00,65.2,64.3,29.73,SW,219,10.0,12.0,97,0.00,,,0.00,Wunderground v.1.15,2013-01-12 11:28:00,
2013-01-12 05:34:00,65.2,64.3,29.73,SSW,211,9.0,10.0,97,0.00,,,0.00,Wunderground v.1.15,2013-01-12 11:34:00,
2013-01-12 05:40:00,65.2,64.3,29.72,SSE,149,8.0,10.0,97,0.00,,,0.00,Wunderground v.1.15,2013-01-12 11:40:00,
2013-01-12 05:46:00,65.2,64.3,29.72,SE,131,8.0,11.0,97,0.00,,,0.00,Wunderground v.1.15,2013-01-12 11:46:00,
2013-01-12 05:52:00,65.2,64.3,29.72,SSE,167,8.0,10.0,97,0.00,,,0.00,Wunderground v.1.15,2013-01-12 11:52:00,
2013-01-12 05:57:00,65.2,64.6,29.72,SSW,211,8.0,10.0,98,0.00,,,0.00,Wunderground v.1.15,2013-01-12 11:57:00,
2013-01-12 06:03:00,65.3,64.7,29.74,SW,229,9.0,10.0,98,0.00,,,0.00,Wunderground v.1.15,2013-01-12 12:03:00,
2013-01-12 06:09:00,65.4,64.5,29.74,WSW,242,9.0,10.0,97,0.00,,,0.00,Wunderground v.1.15,2013-01-12 12:09:00,
2013-01-12 06:15:00,65.5,64.6,29.74,West,267,7.0,10.0,97,0.00,,,0.00,Wunderground v.1.15,2013-01-12 12:15:00,
2013-01-12 06:20:00,65.6,64.7,29.75,West,259,7.0,10.0,97,0.00,,,0.00,Wunderground v.1.15,2013-01-12 12:20:00,
2013-01-12 06:26:00,65.6,64.7,29.76,West,273,6.0,10.0,97,0.00,,,0.00,Wunderground v.1.15,2013-01-12 12:26:00,
2013-01-12 06:32:00,65.7,64.8,29.76,West,260,5.0,10.0,97,0.00,,,0.00,Wunderground v.1.15,2013-01-12 12:32:00,
2013-01-12 06:38:00,65.6,64.7,29.75,SW,226,3.0,10.0,97,0.00,,,0.00,Wunderground v.1.15,2013-01-12 12:38:00,
2013-01-12 06:44:00,65.6,64.7,29.76,SW,235,4.0,10.0,97,0.00,,,0.00,Wunderground v.1.15,2013-01-12 12:44:00,
2013-01-12 06:50:00,65.5,64.6,29.76,SW,229,3.0,3.0,97,0.00,,,0.00,Wunderground v.1.15,2013-01-12 12:50:00,
2013-01-12 06:56:00,65.5,64.6,29.76,WSW,255,2.0,10.0,97,0.00,,,0.00,Wunderground v.1.15,2013-01-12 12:56:00,
2013-01-12 07:01:00,65.4,64.5,29.76,West,269,1.0,10.0,97,0.00,,,0.00,Wunderground v.1.15,2013-01-12 13:01:00,
2013-01-12 07:06:00,65.4,64.5,29.76,SW,223,1.0,10.0,97,0.00,,,0.00,Wunderground v.1.15,2013-01-12 13:06:00,
2013-01-12 07:12:00,65.3,64.4,29.76,South,176,1.0,10.0,97,0.00,,,0.00,Wunderground v.1.15,2013-01-12 13:12:00,
2013-01-12 07:18:00,65.3,64.4,29.76,SW,226,0.0,10.0,97,0.00,,,0.00,Wunderground v.1.15,2013-01-12 13:18:00,
2013-01-12 07:24:00,65.3,64.7,29.76,SW,214,1.0,10.0,98,0.00,,,0.00,Wunderground v.1.15,2013-01-12 13:24:00,
2013-01-12 07:30:00,65.2,64.3,29.76,SW,215,1.0,1.0,97,0.00,,,0.00,Wunderground v.1.15,2013-01-12 13:30:00,
2013-01-12 07:36:00,65.2,64.3,29.75,South,174,0.0,10.0,97,0.00,,,0.00,Wunderground v.1.15,2013-01-12 13:36:00,
2013-01-12 07:41:00,65.2,64.6,29.76,South,174,0.0,10.0,98,0.00,,,0.00,Wunderground v.1.15,2013-01-12 13:41:00,
2013-01-12 07:47:00,65.1,64.5,29.76,South,174,0.0,10.0,98,0.00,,,0.00,Wunderground v.1.15,2013-01-12 13:47:00,
2013-01-12 07:53:00,65.0,64.4,29.75,South,174,0.0,10.0,98,0.00,,,0.00,Wunderground v.1.15,2013-01-12 13:53:00,
2013-01-12 07:59:00,64.9,64.3,29.75,South,175,0.0,10.0,98,0.00,,,0.00,Wunderground v.1.15,2013-01-12 13:59:00,
2013-01-12 08:05:00,64.9,64.3,29.76,South,176,0.0,10.0,98,0.00,,,0.00,Wunderground v.1.15,2013-01-12 14:05:00,
2013-01-12 08:11:00,64.9,64.3,29.76,South,176,0.0,10.0,98,0.00,,,0.00,Wunderground v.1.15,2013-01-12 14:11:00,
2013-01-12 08:17:00,64.9,64.3,29.76,South,176,0.0,10.0,98,0.00,,,0.00,Wunderground v.1.15,2013-01-12 14:17:00,
2013-01-12 08:22:00,64.8,64.2,29.75,South,176,0.0,10.0,98,0.00,,,0.00,Wunderground v.1.15,2013-01-12 14:22:00,
2013-01-12 08:28:00,64.9,64.3,29.75,South,176,0.0,10.0,98,0.00,,,0.00,Wunderground v.1.15,2013-01-12 14:28:00,
2013-01-12 08:34:00,64.9,64.3,29.75,South,176,0.0,10.0,98,0.00,,,0.00,Wunderground v.1.15,2013-01-12 14:34:00,
2013-01-12 08:40:00,64.9,64.3,29.76,SSE,159,0.0,10.0,98,0.00,,,0.00,Wunderground v.1.15,2013-01-12 14:40:00,
2013-01-12 08:46:00,65.0,64.4,29.76,SSE,166,1.0,10.0,98,0.00,,,0.00,Wunderground v.1.15,2013-01-12 14:46:00,
2013-01-12 08:52:00,65.0,64.4,29.76,SSE,159,1.0,10.0,98,0.00,,,0.00,Wunderground v.1.15,2013-01-12 14:52:00,
2013-01-12 08:58:00,65.0,64.4,29.76,SSE,159,1.0,10.0,98,0.00,,,0.00,Wunderground v.1.15,2013-01-12 14:58:00,
2013-01-12 09:04:00,65.0,64.4,29.76,SSE,158,0.0,10.0,98,0.00,,,0.00,Wunderground v.1.15,2013-01-12 15:04:00,
2013-01-12 09:09:00,65.0,64.4,29.76,SSE,159,0.0,10.0,98,0.00,,,0.00,Wunderground v.1.15,2013-01-12 15:09:00,
2013-01-12 09:15:00,65.0,64.4,29.76,SSE,158,0.0,10.0,98,0.00,,,0.00,Wunderground v.1.15,2013-01-12 15:15:00,
2013-01-12 09:21:00,65.1,64.5,29.76,SSE,159,0.0,10.0,98,0.00,,,0.00,Wunderground v.1.15,2013-01-12 15:21:00,
2013-01-12 09:27:00,65.2,64.9,29.76,SSE,149,0.0,10.0,99,0.00,,,0.00,Wunderground v.1.15,2013-01-12 15:27:00,
2013-01-12 09:33:00,65.3,65.0,29.75,SE,141,0.0,10.0,99,0.00,,,0.00,Wunderground v.1.15,2013-01-12 15:33:00,
2013-01-12 09:39:00,65.4,65.1,29.75,SSE,163,1.0,10.0,99,0.00,,,0.00,Wunderground v.1.15,2013-01-12 15:39:00,
2013-01-12 09:45:00,65.6,65.3,29.75,South,172,1.0,10.0,99,0.00,,,0.00,Wunderground v.1.15,2013-01-12 15:45:00,
2013-01-12 09:50:00,65.6,65.3,29.75,ESE,121,2.0,10.0,99,0.00,,,0.00,Wunderground v.1.15,2013-01-12 15:50:00,
2013-01-12 09:56:00,65.7,65.4,29.75,SE,146,2.0,10.0,99,0.00,,,0.00,Wunderground v.1.15,2013-01-12 15:56:00,
2013-01-12 10:02:00,65.9,65.6,29.75,SSE,167,2.0,10.0,99,0.00,,,0.00,Wunderground v.1.15,2013-01-12 16:02:00,
2013-01-12 10:08:00,66.2,65.9,29.74,South,188,2.0,10.0,99,0.00,,,0.00,Wunderground v.1.15,2013-01-12 16:08:00,
2013-01-12 10:14:00,66.3,66.0,29.74,SSE,163,3.0,10.0,99,0.00,,,0.00,Wunderground v.1.15,2013-01-12 16:14:00,
2013-01-12 10:20:00,66.5,65.9,29.75,South,172,4.0,10.0,98,0.00,,,0.00,Wunderground v.1.15,2013-01-12 16:20:00,
2013-01-12 10:25:00,66.7,66.1,29.74,SSE,159,6.0,10.0,98,0.00,,,0.00,Wunderground v.1.15,2013-01-12 16:25:00,
2013-01-12 10:31:00,66.9,66.3,29.74,SSW,203,6.0,10.0,98,0.00,,,0.00,Wunderground v.1.15,2013-01-12 16:31:00,
2013-01-12 10:37:00,67.0,66.4,29.74,SSE,168,5.0,10.0,98,0.00,,,0.00,Wunderground v.1.15,2013-01-12 16:37:00,
2013-01-12 10:43:00,67.1,66.2,29.73,South,173,5.0,10.0,97,0.00,,,0.00,Wunderground v.1.15,2013-01-12 16:43:00,
2013-01-12 10:49:00,67.2,66.3,29.73,SSE,158,5.0,10.0,97,0.00,,,0.00,Wunderground v.1.15,2013-01-12 16:49:00,
2013-01-12 10:55:00,67.3,66.4,29.73,SSE,158,5.0,10.0,97,0.00,,,0.00,Wunderground v.1.15,2013-01-12 16:55:00,
2013-01-12 11:01:00,67.5,66.6,29.73,SSE,165,5.0,10.0,97,0.00,,,0.00,Wunderground v.1.15,2013-01-12 17:01:00,
2013-01-12 11:07:00,67.6,66.4,29.73,SW,214,4.0,10.0,96,0.00,,,0.00,Wunderground v.1.15,2013-01-12 17:07:00,
2013-01-12 11:13:00,67.7,66.5,29.73,SSW,210,4.0,10.0,96,0.00,,,0.00,Wunderground v.1.15,2013-01-12 17:13:00,
2013-01-12 11:19:00,67.9,66.7,29.72,SSE,166,4.0,10.0,96,0.00,,,0.00,Wunderground v.1.15,2013-01-12 17:19:00,
2013-01-12 11:24:00,68.0,66.5,29.72,South,186,4.0,10.0,95,0.00,,,0.00,Wunderground v.1.15,2013-01-12 17:24:00,
2013-01-12 11:30:00,68.2,66.7,29.71,South,169,5.0,5.0,95,0.00,,,0.00,Wunderground v.1.15,2013-01-12 17:30:00,
2013-01-12 11:36:00,68.5,66.7,29.71,South,179,5.0,10.0,94,0.00,,,0.00,Wunderground v.1.15,2013-01-12 17:36:00,
2013-01-12 11:42:00,68.7,66.9,29.70,SSW,203,5.0,10.0,94,0.00,,,0.00,Wunderground v.1.15,2013-01-12 17:42:00,
2013-01-12 11:48:00,68.8,66.7,29.70,SW,219,7.0,13.0,93,0.00,,,0.00,Wunderground v.1.15,2013-01-12 17:48:00,
2013-01-12 11:54:00,69.1,67.0,29.70,SSW,205,7.0,10.0,93,0.00,,,0.00,Wunderground v.1.15,2013-01-12 17:54:00,
2013-01-12 12:00:00,69.5,67.1,29.69,SW,215,6.0,10.0,92,0.00,,,0.00,Wunderground v.1.15,2013-01-12 18:00:00,
2013-01-12 12:05:00,69.9,67.2,29.69,SW,214,7.0,10.0,91,0.00,,,0.00,Wunderground v.1.15,2013-01-12 18:05:00,
2013-01-12 12:11:00,70.1,67.0,29.69,South,174,8.0,10.0,90,0.00,,,0.00,Wunderground v.1.15,2013-01-12 18:11:00,
2013-01-12 12:16:00,70.0,66.6,29.69,SW,231,9.0,13.0,89,0.00,,,0.01,Wunderground v.1.15,2013-01-12 18:16:00,
2013-01-12 12:22:00,69.9,66.5,29.69,South,169,10.0,14.0,89,0.00,,,0.01,Wunderground v.1.15,2013-01-12 18:22:00,
2013-01-12 12:28:00,70.3,66.9,29.68,SSW,212,9.0,16.0,89,0.00,,,0.01,Wunderground v.1.15,2013-01-12 18:28:00,
2013-01-12 12:34:00,70.9,67.2,29.68,SW,224,11.0,15.0,88,0.00,,,0.01,Wunderground v.1.15,2013-01-12 18:34:00,
2013-01-12 12:40:00,71.1,67.0,29.67,SSE,166,11.0,11.0,87,0.00,,,0.01,Wunderground v.1.15,2013-01-12 18:40:00,
2013-01-12 12:45:00,71.1,66.7,29.68,SW,236,11.0,13.0,86,0.00,,,0.01,Wunderground v.1.15,2013-01-12 18:45:00,
2013-01-12 12:50:00,71.2,66.5,29.67,SW,227,10.0,16.0,85,0.00,,,0.01,Wunderground v.1.15,2013-01-12 18:50:00,
2013-01-12 12:55:00,71.1,66.4,29.67,WSW,246,10.0,16.0,85,0.00,,,0.01,Wunderground v.1.15,2013-01-12 18:55:00,
2013-01-12 13:01:00,71.0,66.6,29.67,SSW,201,10.0,11.0,86,0.00,,,0.01,Wunderground v.1.15,2013-01-12 19:01:00,
2013-01-12 13:07:00,71.0,66.6,29.66,SSW,195,9.0,11.0,86,0.00,,,0.01,Wunderground v.1.15,2013-01-12 19:07:00,
2013-01-12 13:13:00,71.0,66.3,29.66,SW,221,10.0,13.0,85,0.00,,,0.01,Wunderground v.1.15,2013-01-12 19:13:00,
2013-01-12 13:18:00,71.1,66.4,29.66,SSE,159,9.0,13.0,85,0.00,,,0.01,Wunderground v.1.15,2013-01-12 19:18:00,
2013-01-12 13:23:00,71.5,66.8,29.65,SSW,204,9.0,10.0,85,0.00,,,0.01,Wunderground v.1.15,2013-01-12 19:23:00,
2013-01-12 13:28:00,71.5,66.1,29.65,SW,214,11.0,17.0,83,0.00,,,0.01,Wunderground v.1.15,2013-01-12 19:28:00,
2013-01-12 13:33:00,71.8,66.4,29.65,SW,217,11.0,11.0,83,0.00,,,0.01,Wunderground v.1.15,2013-01-12 19:33:00,
2013-01-12 13:39:00,72.1,65.9,29.64,SW,233,10.0,12.0,81,0.00,,,0.01,Wunderground v.1.15,2013-01-12 19:39:00,
2013-01-12 13:45:00,72.2,65.7,29.64,SW,233,12.0,18.0,80,0.00,,,0.01,Wunderground v.1.15,2013-01-12 19:45:00,
2013-01-12 13:51:00,72.1,65.9,29.64,SW,224,13.0,13.0,81,0.00,,,0.01,Wunderground v.1.15,2013-01-12 19:51:00,
2013-01-12 13:57:00,72.6,66.1,29.64,SW,225,11.0,15.0,80,0.00,,,0.01,Wunderground v.1.15,2013-01-12 19:57:00,
2013-01-12 14:03:00,72.6,66.1,29.64,SSW,213,11.0,12.0,80,0.00,,,0.01,Wunderground v.1.15,2013-01-12 20:03:00,
2013-01-12 14:08:00,72.6,65.7,29.64,SW,221,11.0,13.0,79,0.00,,,0.01,Wunderground v.1.15,2013-01-12 20:08:00,
2013-01-12 14:14:00,72.6,65.7,29.64,SSW,212,10.0,13.0,79,0.00,,,0.01,Wunderground v.1.15,2013-01-12 20:14:00,
2013-01-12 14:20:00,72.4,65.2,29.64,SSW,205,11.0,12.0,78,0.00,,,0.01,Wunderground v.1.15,2013-01-12 20:20:00,
2013-01-12 14:26:00,72.7,65.4,29.64,SW,214,12.0,15.0,78,0.00,,,0.01,Wunderground v.1.15,2013-01-12 20:26:00,
2013-01-12 14:32:00,73.3,66.0,29.63,SSW,205,10.0,10.0,78,0.00,,,0.01,Wunderground v.1.15,2013-01-12 20:32:00,
2013-01-12 14:38:00,73.5,65.8,29.63,SW,225,9.0,12.0,77,0.00,,,0.01,Wunderground v.1.15,2013-01-12 20:38:00,
2013-01-12 14:43:00,73.8,65.4,29.63,SW,224,11.0,13.0,75,0.00,,,0.01,Wunderground v.1.15,2013-01-12 20:43:00,
2013-01-12 14:49:00,73.7,65.3,29.63,SW,218,11.0,13.0,75,0.00,,,0.01,Wunderground v.1.15,2013-01-12 20:49:00,
2013-01-12 14:55:00,73.5,64.7,29.63,SW,226,11.0,12.0,74,0.00,,,0.01,Wunderground v.1.15,2013-01-12 20:55:00,
2013-01-12 15:00:00,73.2,65.2,29.63,SSE,149,11.0,11.0,76,0.00,,,0.01,Wunderground v.1.15,2013-01-12 21:00:00,
2013-01-12 15:05:00,73.7,64.9,29.63,SSW,212,9.0,11.0,74,0.00,,,0.01,Wunderground v.1.15,2013-01-12 21:05:00,
2013-01-12 15:11:00,73.5,64.3,29.63,WSW,243,10.0,15.0,73,0.00,,,0.01,Wunderground v.1.15,2013-01-12 21:11:00,
2013-01-12 15:16:00,73.1,64.7,29.63,SSW,207,10.0,15.0,75,0.00,,,0.01,Wunderground v.1.15,2013-01-12 21:16:00,
2013-01-12 15:22:00,73.5,64.7,29.64,SW,219,8.0,14.0,74,0.00,,,0.01,Wunderground v.1.15,2013-01-12 21:22:00,
2013-01-12 15:28:00,73.3,64.1,29.63,West,259,9.0,14.0,73,0.00,,,0.01,Wunderground v.1.15,2013-01-12 21:28:00,
2013-01-12 15:34:00,73.5,64.3,29.63,WSW,240,9.0,12.0,73,0.00,,,0.01,Wunderground v.1.15,2013-01-12 21:34:00,
2013-01-12 15:40:00,73.6,64.8,29.64,SW,224,9.0,9.0,74,0.00,,,0.01,Wunderground v.1.15,2013-01-12 21:40:00,
2013-01-12 15:46:00,73.6,64.8,29.64,SW,235,9.0,12.0,74,0.00,,,0.01,Wunderground v.1.15,2013-01-12 21:46:00,
2013-01-12 15:52:00,73.2,64.4,29.64,WSW,246,9.0,12.0,74,0.00,,,0.01,Wunderground v.1.15,2013-01-12 21:52:00,
2013-01-12 15:58:00,73.1,63.9,29.65,SSW,208,9.0,12.0,73,0.00,,,0.01,Wunderground v.1.15,2013-01-12 21:58:00,
2013-01-12 16:04:00,72.7,63.5,29.65,West,269,10.0,11.0,73,0.00,,,0.01,Wunderground v.1.15,2013-01-12 22:04:00,
2013-01-12 16:10:00,72.1,62.2,29.66,NW,309,9.0,10.0,71,0.00,,,0.01,Wunderground v.1.15,2013-01-12 22:10:00,
2013-01-12 16:15:00,69.2,60.6,29.67,NNW,332,9.0,12.0,74,0.00,,,0.01,Wunderground v.1.15,2013-01-12 22:15:00,
2013-01-12 16:21:00,67.5,59.7,29.67,NW,316,11.0,11.0,76,0.00,,,0.01,Wunderground v.1.15,2013-01-12 22:21:00,
2013-01-12 16:27:00,66.9,59.1,29.67,NNW,332,10.0,14.0,76,0.00,,,0.01,Wunderground v.1.15,2013-01-12 22:27:00,
2013-01-12 16:33:00,65.4,56.5,29.68,North,357,11.0,15.0,73,0.00,,,0.01,Wunderground v.1.15,2013-01-12 22:33:00,
2013-01-12 16:38:00,64.7,56.2,29.68,NNW,339,12.0,15.0,74,0.00,,,0.01,Wunderground v.1.15,2013-01-12 22:38:00,
2013-01-12 16:44:00,63.8,55.0,29.69,NNW,339,13.0,14.0,73,0.00,,,0.01,Wunderground v.1.15,2013-01-12 22:44:00,
2013-01-12 16:49:00,63.4,54.2,29.68,North,360,13.0,16.0,72,0.00,,,0.01,Wunderground v.1.15,2013-01-12 22:49:00,
2013-01-12 16:55:00,63.0,53.4,29.70,NNW,328,12.0,17.0,71,0.00,,,0.01,Wunderground v.1.15,2013-01-12 22:55:00,
2013-01-12 17:01:00,62.5,52.2,29.70,North,355,13.0,14.0,69,0.00,,,0.01,Wunderground v.1.15,2013-01-12 23:01:00,
2013-01-12 17:07:00,61.6,50.1,29.71,North,354,12.0,16.0,66,0.00,,,0.01,Wunderground v.1.15,2013-01-12 23:07:00,
2013-01-12 17:13:00,61.2,49.3,29.71,NE,51,11.0,13.0,65,0.00,,,0.01,Wunderground v.1.15,2013-01-12 23:13:00,
2013-01-12 17:18:00,60.8,49.0,29.71,North,6,11.0,14.0,65,0.00,,,0.01,Wunderground v.1.15,2013-01-12 23:18:00,
2013-01-12 17:23:00,60.3,48.5,29.72,North,349,12.0,12.0,65,0.00,,,0.01,Wunderground v.1.15,2013-01-12 23:23:00,
2013-01-12 17:29:00,59.4,47.2,29.72,NNE,21,12.0,18.0,64,0.00,,,0.01,Wunderground v.1.15,2013-01-12 23:29:00,
2013-01-12 17:34:00,58.6,45.6,29.73,NNE,15,13.0,19.0,62,0.00,,,0.01,Wunderground v.1.15,2013-01-12 23:34:00,
2013-01-12 17:40:00,57.7,44.8,29.73,NNE,15,14.0,14.0,62,0.00,,,0.01,Wunderground v.1.15,2013-01-12 23:40:00,
2013-01-12 17:46:00,56.9,44.0,29.74,North,5,14.0,15.0,62,0.00,,,0.01,Wunderground v.1.15,2013-01-12 23:46:00,
2013-01-12 17:51:00,56.5,44.0,29.74,NE,38,14.0,14.0,63,0.00,,,0.01,Wunderground v.1.15,2013-01-12 23:51:00,
2013-01-12 17:57:00,55.8,43.4,29.75,North,11,14.0,22.0,63,0.00,,,0.01,Wunderground v.1.15,2013-01-12 23:57:00,
2013-01-12 18:03:00,55.3,43.3,29.75,NNE,29,14.0,17.0,64,0.00,,,0.01,Wunderground v.1.15,2013-01-13 00:03:00,
2013-01-12 18:08:00,54.7,43.2,29.75,North,349,14.0,19.0,65,0.00,,,0.01,Wunderground v.1.15,2013-01-13 00:08:00,
2013-01-12 18:13:00,54.1,42.2,29.75,NNE,25,14.0,20.0,64,0.00,,,0.01,Wunderground v.1.15,2013-01-13 00:13:00,
2013-01-12 18:19:00,53.3,42.2,29.76,North,356,14.0,20.0,66,0.00,,,0.01,Wunderground v.1.15,2013-01-13 00:19:00,
2013-01-12 18:25:00,52.7,41.7,29.76,North,4,15.0,22.0,66,0.00,,,0.01,Wunderground v.1.15,2013-01-13 00:25:00,
2013-01-12 18:31:00,51.8,41.6,29.76,NNE,27,16.0,16.0,68,0.00,,,0.01,Wunderground v.1.15,2013-01-13 00:31:00,
2013-01-12 18:36:00,51.4,41.6,29.76,NNW,342,15.0,16.0,69,0.00,,,0.01,Wunderground v.1.15,2013-01-13 00:36:00,
2013-01-12 18:42:00,50.8,41.0,29.77,NNE,27,15.0,16.0,69,0.00,,,0.01,Wunderground v.1.15,2013-01-13 00:42:00,
2013-01-12 18:48:00,50.4,41.3,29.78,NE,39,15.0,21.0,71,0.00,,,0.01,Wunderground v.1.15,2013-01-13 00:48:00,
2013-01-12 18:54:00,50.0,41.0,29.78,North,352,12.0,16.0,71,0.00,,,0.01,Wunderground v.1.15,2013-01-13 00:54:00,
2013-01-12 19:00:00,49.4,40.7,29.79,NE,37,13.0,13.0,72,0.00,,,0.01,Wunderground v.1.15,2013-01-13 01:00:00,
2013-01-12 19:05:00,49.0,40.0,29.80,NNE,31,13.0,21.0,71,0.00,,,0.01,Wunderground v.1.15,2013-01-13 01:05:00,
2013-01-12 19:11:00,48.4,39.8,29.81,NNE,18,13.0,13.0,72,0.00,,,0.01,Wunderground v.1.15,2013-01-13 01:11:00,
2013-01-12 19:16:00,48.2,39.9,29.81,NNE,15,13.0,15.0,73,0.00,,,0.01,Wunderground v.1.15,2013-01-13 01:16:00,
2013-01-12 19:22:00,47.8,39.2,29.81,North,357,13.0,14.0,72,0.00,,,0.01,Wunderground v.1.15,2013-01-13 01:22:00,
2013-01-12 19:28:00,47.4,39.2,29.81,NNE,12,13.0,18.0,73,0.00,,,0.01,Wunderground v.1.15,2013-01-13 01:28:00,
2013-01-12 19:34:00,47.0,38.8,29.81,North,352,13.0,17.0,73,0.00,,,0.01,Wunderground v.1.15,2013-01-13 01:34:00,
2013-01-12 19:39:00,46.7,38.5,29.80,North,355,14.0,17.0,73,0.00,,,0.01,Wunderground v.1.15,2013-01-13 01:39:00,
2013-01-12 19:44:00,46.4,38.2,29.81,North,356,15.0,21.0,73,0.00,,,0.01,Wunderground v.1.15,2013-01-13 01:44:00,
2013-01-12 19:50:00,46.3,38.5,29.81,North,355,15.0,15.0,74,0.00,,,0.01,Wunderground v.1.15,2013-01-13 01:50:00,
2013-01-12 19:56:00,46.2,38.7,29.82,NNE,15,13.0,16.0,75,0.00,,,0.01,Wunderground v.1.15,2013-01-13 01:56:00,
2013-01-12 20:01:00,46.3,38.8,29.82,NNE,15,11.0,12.0,75,0.00,,,0.01,Wunderground v.1.15,2013-01-13 02:01:00,
2013-01-12 20:06:00,46.1,38.6,29.82,North,352,10.0,14.0,75,0.00,,,0.01,Wunderground v.1.15,2013-01-13 02:06:00,
2013-01-12 20:11:00,46.0,38.5,29.82,NNE,13,12.0,12.0,75,0.00,,,0.01,Wunderground v.1.15,2013-01-13 02:11:00,
2013-01-12 20:17:00,45.9,38.4,29.83,NE,39,11.0,14.0,75,0.00,,,0.01,Wunderground v.1.15,2013-01-13 02:17:00,
2013-01-12 20:22:00,45.8,38.7,29.83,NNE,13,10.0,12.0,76,0.00,,,0.01,Wunderground v.1.15,2013-01-13 02:22:00,
2013-01-12 20:28:00,45.5,38.0,29.83,NNE,12,10.0,13.0,75,0.00,,,0.01,Wunderground v.1.15,2013-01-13 02:28:00,
2013-01-12 20:33:00,45.3,37.2,29.84,North,357,12.0,15.0,73,0.00,,,0.01,Wunderground v.1.15,2013-01-13 02:33:00,
2013-01-12 20:39:00,44.9,36.8,29.83,NNE,22,13.0,15.0,73,0.00,,,0.01,Wunderground v.1.15,2013-01-13 02:39:00,
2013-01-12 20:44:00,44.7,36.9,29.83,North,11,12.0,14.0,74,0.00,,,0.01,Wunderground v.1.15,2013-01-13 02:44:00,
2013-01-12 20:49:00,44.4,36.3,29.84,NE,51,12.0,16.0,73,0.00,,,0.01,Wunderground v.1.15,2013-01-13 02:49:00,
2013-01-12 20:54:00,44.1,36.3,29.84,NE,46,13.0,18.0,74,0.00,,,0.01,Wunderground v.1.15,2013-01-13 02:54:00,
2013-01-12 20:59:00,43.8,36.0,29.84,North,1,12.0,14.0,74,0.00,,,0.01,Wunderground v.1.15,2013-01-13 02:59:00,
2013-01-12 21:05:00,43.7,36.0,29.83,North,6,12.0,21.0,74,0.00,,,0.01,Wunderground v.1.15,2013-01-13 03:05:00,
2013-01-12 21:10:00,43.6,35.9,29.83,NNE,22,12.0,13.0,74,0.00,,,0.01,Wunderground v.1.15,2013-01-13 03:10:00,
2013-01-12 21:16:00,43.5,35.4,29.83,North,5,13.0,17.0,73,0.00,,,0.01,Wunderground v.1.15,2013-01-13 03:16:00,
2013-01-12 21:22:00,43.2,35.1,29.83,NNE,15,13.0,18.0,73,0.00,,,0.01,Wunderground v.1.15,2013-01-13 03:22:00,
2013-01-12 21:27:00,42.9,34.8,29.83,NE,36,15.0,19.0,73,0.00,,,0.01,Wunderground v.1.15,2013-01-13 03:27:00,
2013-01-12 21:33:00,42.6,34.5,29.84,NNE,20,14.0,20.0,73,0.00,,,0.01,Wunderground v.1.15,2013-01-13 03:33:00,
2013-01-12 21:39:00,42.4,34.0,29.85,NNW,342,13.0,20.0,72,0.00,,,0.01,Wunderground v.1.15,2013-01-13 03:39:00,
2013-01-12 21:45:00,42.4,34.4,29.84,NNE,19,12.0,13.0,73,0.00,,,0.01,Wunderground v.1.15,2013-01-13 03:45:00,
2013-01-12 21:51:00,42.2,33.8,29.84,North,9,12.0,15.0,72,0.00,,,0.01,Wunderground v.1.15,2013-01-13 03:51:00,
2013-01-12 21:57:00,41.7,33.0,29.84,NNW,342,15.0,18.0,71,0.00,,,0.01,Wunderground v.1.15,2013-01-13 03:57:00,
2013-01-12 22:03:00,41.6,33.2,29.84,NE,35,15.0,15.0,72,0.00,,,0.01,Wunderground v.1.15,2013-01-13 04:03:00,
2013-01-12 22:09:00,41.5,33.1,29.85,NNW,342,13.0,15.0,72,0.00,,,0.01,Wunderground v.1.15,2013-01-13 04:09:00,
2013-01-12 22:14:00,41.5,33.5,29.86,NNE,27,11.0,13.0,73,0.00,,,0.01,Wunderground v.1.15,2013-01-13 04:14:00,
2013-01-12 22:20:00,41.4,33.4,29.86,NE,53,11.0,11.0,73,0.00,,,0.01,Wunderground v.1.15,2013-01-13 04:20:00,
2013-01-12 22:26:00,41.1,32.4,29.86,North,11,12.0,18.0,71,0.00,,,0.01,Wunderground v.1.15,2013-01-13 04:26:00,
2013-01-12 22:31:00,40.6,32.3,29.86,North,355,13.0,18.0,72,0.00,,,0.01,Wunderground v.1.15,2013-01-13 04:31:00,
2013-01-12 22:37:00,40.2,31.9,29.87,North,6,14.0,18.0,72,0.00,,,0.01,Wunderground v.1.15,2013-01-13 04:37:00,
2013-01-12 22:43:00,40.0,32.0,29.87,NNW,342,13.0,16.0,73,0.00,,,0.01,Wunderground v.1.15,2013-01-13 04:43:00,
2013-01-12 22:49:00,39.9,31.9,29.87,NNE,16,13.0,18.0,73,0.00,,,0.01,Wunderground v.1.15,2013-01-13 04:49:00,
2013-01-12 22:55:00,39.7,32.1,29.88,NNE,13,13.0,15.0,74,0.00,,,0.01,Wunderground v.1.15,2013-01-13 04:55:00,
2013-01-12 23:01:00,39.5,31.9,29.88,NNE,20,14.0,18.0,74,0.00,,,0.01,Wunderground v.1.15,2013-01-13 05:01:00,
2013-01-12 23:02:00,39.4,32.1,29.89,NNE,30,15.0,18.0,75,0.00,,,0.01,Wunderground v.1.15,2013-01-13 05:02:00,
2013-01-12 23:03:00,39.4,32.1,29.89,North,6,15.0,18.0,75,0.00,,,0.01,Wunderground v.1.15,2013-01-13 05:03:00,
2013-01-12 23:05:00,39.3,32.0,29.89,North,355,15.0,18.0,75,0.00,,,0.01,Wunderground v.1.15,2013-01-13 05:05:00,
2013-01-12 23:11:00,39.2,32.3,29.89,NE,42,14.0,14.0,76,0.00,,,0.01,Wunderground v.1.15,2013-01-13 05:11:00,
2013-01-12 23:17:00,39.0,32.1,29.89,NE,39,14.0,18.0,76,0.00,,,0.01,Wunderground v.1.15,2013-01-13 05:17:00,
2013-01-12 23:23:00,38.9,32.3,29.91,North,9,12.0,13.0,77,0.00,,,0.01,Wunderground v.1.15,2013-01-13 05:23:00,
2013-01-12 23:28:00,38.9,32.3,29.91,NNE,27,10.0,13.0,77,0.00,,,0.01,Wunderground v.1.15,2013-01-13 05:28:00,
2013-01-12 23:34:00,38.7,32.1,29.91,NNE,27,12.0,19.0,77,0.00,,,0.01,Wunderground v.1.15,2013-01-13 05:34:00,
2013-01-12 23:40:00,38.4,31.8,29.92,North,8,14.0,14.0,77,0.00,,,0.01,Wunderground v.1.15,2013-01-13 05:40:00,
2013-01-12 23:45:00,38.1,31.8,29.91,North,4,13.0,19.0,78,0.00,,,0.01,Wunderground v.1.15,2013-01-13 05:45:00,
2013-01-12 23:51:00,37.8,31.6,29.92,NNW,347,13.0,19.0,78,0.00,,,0.01,Wunderground v.1.15,2013-01-13 05:51:00,
2013-01-12 23:57:00,37.5,31.6,29.92,North,3,13.0,19.0,79,0.00,,,0.01,Wunderground v.1.15,2013-01-13 05:57:00,